User: anonymous   Login
Location: Irma
(52.9170°N, 111.2330°W)
Time: 14:20:28
(UTC-06:00)
Language:

Cosmos 1633 Rocket - Orbit

View from above orbital plane
View from above orbital plane
View from above satellite
View from above satellite

Ground track
Ground track

The orbit data is extracted from the following two-line orbital elements,

1 15593U 85020B   16147.41729564  .00000143  00000-0  14191-4 0  9993
2 15593  82.5386 264.5565 0010426 232.5180 189.9940 14.84208697687004
Epoch (UTC): 26 May 2016 10:00:54
Eccentricity: 0.0010426
inclination: 82.5386°
perigee height: 609 km
apogee height: 623 km
right ascension of ascending node: 264.5565°
argument of perigee: 232.5180°
revolutions per day: 14.84208697
mean anomaly at epoch: 189.9940°
orbit number at epoch: 68700

The dashed part of the orbit path shows where the satellite is in the earth's shadow,  

DLR